Cloquet, MN

3:40 AM CST on December 11, 2019 (GMT -0600)
Cloquet Carlton County

Weather History for KCOQ - October, 2019

Change the Weather History Date:

Thursday, October 31, 2019

  Actual Average Record
Temperature  
Mean Temperature 28 °F -  
Max Temperature 32 °F 42 °F 66 °F (1999)
Min Temperature 24 °F 29 °F 19 °F (2002)
Degree Days  
Heating Degree Days 37    
Moisture  
Dew Point 14 °F    
Average Humidity 60    
Maximum Humidity 69    
Minimum Humidity 47    
Precipitation  
Precipitation 0.00 in - - ()
Sea Level Pressure  
Sea Level Pressure 30.03 in    
Wind  
Wind Speed 4 mph ()    
Max Wind Speed 9 mph    
Max Gust Speed -    
Visibility 10.0 miles    
Events Snow    
Averages and records for this station are not official NWS values.
T = Trace of Precipitation, MM = Missing Value Source: Averaged Metar Reports

Daily Weather History Graph

Daily Weather History Graph

Search for Another Location

Airport or City:

Astronomy

Oct. 31, 2019 Rise Set
Actual Time 7:50 AM CDT 5:56 PM CDT
Civil Twilight 7:18 AM CDT 6:27 PM CDT
Nautical Twilight 6:43 AM CDT 7:03 PM CDT
Astronomical Twilight 6:07 AM CDT 7:38 PM CDT
Moon 11:50 AM CDT (10/31) 8:41 PM CDT (10/31)
Length of Visible Light 11h 09m
Length of Day
10h 05m
Waxing Crescent, 16% of the Moon is Illuminated
Oct 31
Waxing Crescent
Nov 4
First Quarter
Nov 12
Full
Nov 19
Last Quarter
Nov 26
New

Hourly Weather History & Observations

Time (CDT) Temp. Windchill Dew Point Humidity Pressure Visibility Wind Dir Wind Speed Gust Speed Precip Events Conditions
12:15 AM 24.8 °F 19.1 °F 12.2 °F 59% 30.14 in 10.0 mi NW 4.6 mph - N/A   Overcast
12:16 AM 24.8 °F 19.1 °F 12.2 °F 59% 30.14 in 10.0 mi WNW 4.6 mph - N/A   Overcast
12:35 AM 24.8 °F 20.5 °F 12.2 °F 59% 30.14 in 10.0 mi NW 3.5 mph - N/A   Overcast
12:36 AM 24.8 °F 20.5 °F 12.2 °F 59% 30.14 in 10.0 mi NW 3.5 mph - N/A   Overcast
12:55 AM 24.8 °F 17.9 °F 12.2 °F 59% 30.14 in 10.0 mi NW 5.8 mph - N/A   Overcast
12:56 AM 24.8 °F 17.9 °F 12.2 °F 59% 30.14 in 10.0 mi NW 5.8 mph - N/A   Overcast
1:15 AM 24.8 °F - 14.0 °F 64% 30.14 in 10.0 mi Calm Calm - N/A   Overcast
1:16 AM 24.8 °F - 14.0 °F 64% 30.14 in 10.0 mi Calm Calm - N/A   Overcast
1:35 AM 24.8 °F 16.1 °F 12.2 °F 59% 30.14 in 10.0 mi NNW 8.1 mph - N/A   Overcast
1:36 AM 24.8 °F 16.1 °F 12.2 °F 59% 30.14 in 10.0 mi NNW 8.1 mph - N/A   Overcast
1:55 AM 24.8 °F 20.5 °F 12.2 °F 59% 30.13 in 10.0 mi NW 3.5 mph - N/A   Overcast
1:56 AM 24.8 °F 20.5 °F 12.2 °F 59% 30.13 in 10.0 mi WNW 3.5 mph - N/A   Overcast
2:15 AM 24.8 °F 20.5 °F 12.2 °F 59% 30.13 in 10.0 mi NW 3.5 mph - N/A   Overcast
2:35 AM 24.8 °F 17.9 °F 12.2 °F 59% 30.13 in 10.0 mi NW 5.8 mph - N/A   Overcast
2:55 AM 24.8 °F 16.9 °F 14.0 °F 64% 30.12 in 10.0 mi NNW 6.9 mph - N/A   Overcast
3:15 AM 24.8 °F 19.1 °F 14.0 °F 64% 30.12 in 10.0 mi NW 4.6 mph - N/A   Overcast
3:16 AM 24.8 °F 19.1 °F 14.0 °F 64% 30.12 in 10.0 mi NNW 4.6 mph - N/A   Overcast
3:35 AM 24.8 °F 20.5 °F 14.0 °F 64% 30.11 in 10.0 mi NW 3.5 mph - N/A   Overcast
3:55 AM 24.8 °F 20.5 °F 12.2 °F 59% 30.11 in 10.0 mi NW 3.5 mph - N/A   Overcast
4:15 AM 24.8 °F - 12.2 °F 59% 30.10 in 10.0 mi Calm Calm - N/A   Overcast
4:16 AM 24.8 °F - 12.2 °F 59% 30.09 in 10.0 mi Calm Calm - N/A   Overcast
4:35 AM 24.8 °F - 12.2 °F 59% 30.09 in 10.0 mi Calm Calm - N/A   Overcast
4:55 AM 24.8 °F - 12.2 °F 59% 30.09 in 10.0 mi Calm Calm - N/A   Overcast
4:56 AM 24.8 °F - 12.2 °F 59% 30.09 in 10.0 mi Calm Calm - N/A   Overcast
5:15 AM 24.8 °F - 14.0 °F 64% 30.09 in 10.0 mi Calm Calm - N/A   Overcast
5:16 AM 24.8 °F - 14.0 °F 64% 30.09 in 10.0 mi Calm Calm - N/A   Overcast
5:35 AM 24.8 °F - 14.0 °F 64% 30.09 in 10.0 mi Calm Calm - N/A   Overcast
5:36 AM 24.8 °F - 14.0 °F 64% 30.09 in 10.0 mi Calm Calm - N/A   Overcast
5:55 AM 24.8 °F - 14.0 °F 64% 30.08 in 10.0 mi Calm Calm - N/A   Overcast
6:15 AM 24.8 °F - 14.0 °F 64% 30.08 in 10.0 mi Calm Calm - N/A   Overcast
6:16 AM 24.8 °F - 14.0 °F 64% 30.08 in 10.0 mi Calm Calm - N/A   Overcast
6:35 AM 24.8 °F - 14.0 °F 64% 30.08 in 10.0 mi Calm Calm - N/A   Overcast
6:55 AM 24.8 °F 20.5 °F 14.0 °F 64% 30.08 in 10.0 mi West 3.5 mph - N/A   Overcast
7:15 AM 24.8 °F 20.5 °F 14.0 °F 64% 30.07 in 10.0 mi West 3.5 mph - N/A   Overcast
7:16 AM 24.8 °F - 14.0 °F 64% 30.07 in 10.0 mi Calm Calm - N/A   Overcast
7:35 AM 24.8 °F 17.9 °F 14.0 °F 64% 30.08 in 10.0 mi WNW 5.8 mph - N/A   Overcast
7:55 AM 24.8 °F - 14.0 °F 64% 30.07 in 10.0 mi Calm Calm - N/A Snow Light Snow
8:15 AM 24.8 °F 20.5 °F 12.2 °F 59% 30.07 in 10.0 mi WNW 3.5 mph - N/A   Overcast
8:35 AM 24.8 °F 20.5 °F 14.0 °F 64% 30.07 in 10.0 mi WNW 3.5 mph - N/A   Overcast
8:36 AM 24.8 °F 19.1 °F 14.0 °F 64% 30.07 in 10.0 mi WNW 4.6 mph - N/A   Overcast
8:55 AM 24.8 °F 20.5 °F 14.0 °F 64% 30.07 in 10.0 mi West 3.5 mph - N/A   Overcast
8:56 AM 24.8 °F 20.5 °F 14.0 °F 64% 30.07 in 10.0 mi West 3.5 mph - N/A   Overcast
9:15 AM 24.8 °F 19.1 °F 14.0 °F 64% 30.06 in 10.0 mi WNW 4.6 mph - N/A   Overcast
9:35 AM 24.8 °F 17.9 °F 14.0 °F 64% 30.07 in 10.0 mi West 5.8 mph - N/A   Overcast
9:36 AM 24.8 °F 17.9 °F 14.0 °F 64% 30.06 in 10.0 mi West 5.8 mph - N/A   Overcast
9:55 AM 24.8 °F 17.9 °F 14.0 °F 64% 30.06 in 10.0 mi West 5.8 mph - N/A   Overcast
9:56 AM 24.8 °F 16.9 °F 14.0 °F 64% 30.06 in 10.0 mi West 6.9 mph - N/A   Overcast
10:16 AM 24.8 °F 16.9 °F 12.2 °F 59% 30.06 in 10.0 mi NNW 6.9 mph - N/A   Overcast
10:35 AM 24.8 °F 17.9 °F 14.0 °F 64% 30.05 in 10.0 mi WNW 5.8 mph - N/A   Overcast
10:36 AM 24.8 °F 16.1 °F 14.0 °F 64% 30.05 in 10.0 mi WNW 8.1 mph - N/A   Overcast
10:55 AM 26.6 °F 21.2 °F 14.0 °F 59% 30.05 in 10.0 mi NW 4.6 mph - N/A   Overcast
10:56 AM 26.6 °F 20.0 °F 14.0 °F 59% 30.05 in 10.0 mi WNW 5.8 mph - N/A   Overcast
11:15 AM 26.6 °F 19.1 °F 14.0 °F 59% 30.04 in 10.0 mi NW 6.9 mph - N/A   Overcast
11:35 AM 26.6 °F 19.1 °F 14.0 °F 59% 30.04 in 10.0 mi NW 6.9 mph - N/A   Overcast
11:55 AM 26.6 °F 19.1 °F 14.0 °F 59% 30.03 in 10.0 mi NNW 6.9 mph - N/A   Overcast
11:56 AM 26.6 °F 18.2 °F 14.0 °F 59% 30.03 in 10.0 mi West 8.1 mph - N/A   Overcast
12:15 PM 28.4 °F 23.3 °F 14.0 °F 55% 30.02 in 10.0 mi West 4.6 mph - N/A   Overcast
12:35 PM 28.4 °F 20.4 °F 14.0 °F 55% 30.01 in 10.0 mi WNW 8.1 mph - N/A   Overcast
12:55 PM 28.4 °F 20.4 °F 14.0 °F 55% 30.01 in 10.0 mi West 8.1 mph - N/A   Overcast
1:15 PM 28.4 °F 22.2 °F 14.0 °F 55% 30.00 in 10.0 mi WNW 5.8 mph - N/A   Overcast
1:16 PM 28.4 °F 22.2 °F 14.0 °F 55% 30.00 in 10.0 mi WNW 5.8 mph - N/A   Overcast
1:35 PM 28.4 °F 21.2 °F 14.0 °F 55% 29.99 in 10.0 mi WNW 6.9 mph - N/A   Mostly Cloudy
1:55 PM 30.2 °F 24.3 °F 14.0 °F 51% 29.98 in 10.0 mi NNW 5.8 mph - N/A   Mostly Cloudy
1:56 PM 30.2 °F 25.4 °F 14.0 °F 51% 29.98 in 10.0 mi NW 4.6 mph - N/A   Mostly Cloudy
2:35 PM 30.2 °F 25.4 °F 12.2 °F 47% 29.97 in 10.0 mi WNW 4.6 mph - N/A   Scattered Clouds
2:55 PM 30.2 °F 21.9 °F 14.0 °F 51% 29.97 in 10.0 mi West 9.2 mph - N/A   Scattered Clouds
3:15 PM 30.2 °F 23.4 °F 14.0 °F 51% 29.96 in 10.0 mi West 6.9 mph - N/A   Clear
3:16 PM 30.2 °F 23.4 °F 14.0 °F 51% 29.96 in 10.0 mi West 6.9 mph - N/A   Clear
3:35 PM 30.2 °F 23.4 °F 14.0 °F 51% 29.96 in 10.0 mi West 6.9 mph - N/A   Clear
3:55 PM 30.2 °F 23.4 °F 14.0 °F 51% 29.96 in 10.0 mi West 6.9 mph - N/A   Clear
3:56 PM 30.2 °F 23.4 °F 14.0 °F 51% 29.95 in 10.0 mi West 6.9 mph - N/A   Clear
4:15 PM 30.2 °F 26.7 °F 14.0 °F 51% 29.95 in 10.0 mi West 3.5 mph - N/A   Clear
4:16 PM 30.2 °F 26.7 °F 14.0 °F 51% 29.95 in 10.0 mi West 3.5 mph - N/A   Clear
4:35 PM 30.2 °F 25.4 °F 14.0 °F 51% 29.95 in 10.0 mi WSW 4.6 mph - N/A   Clear
4:55 PM 32.0 °F 27.5 °F 14.0 °F 48% 29.95 in 10.0 mi West 4.6 mph - N/A   Clear
5:15 PM 30.2 °F 26.7 °F 15.8 °F 55% 29.95 in 10.0 mi SW 3.5 mph - N/A   Clear
5:35 PM 30.2 °F 25.4 °F 14.0 °F 51% 29.95 in 10.0 mi WSW 4.6 mph - N/A   Clear
5:55 PM 28.4 °F 24.6 °F 14.0 °F 55% 29.94 in 10.0 mi SW 3.5 mph - N/A   Clear
5:56 PM 28.4 °F 24.6 °F 14.0 °F 55% 29.94 in 10.0 mi SW 3.5 mph - N/A   Clear
6:15 PM 28.4 °F - 14.0 °F 55% 29.95 in 10.0 mi Calm Calm - N/A   Clear
6:35 PM 28.4 °F - 15.8 °F 59% 29.95 in 10.0 mi Calm Calm - N/A   Clear
6:36 PM 28.4 °F - 15.8 °F 59% 29.95 in 10.0 mi Calm Calm - N/A   Clear
6:55 PM 28.4 °F - 15.8 °F 59% 29.95 in 10.0 mi Calm Calm - N/A   Clear
7:15 PM 26.6 °F - 15.8 °F 64% 29.95 in 10.0 mi Calm Calm - N/A   Clear
7:16 PM 26.6 °F - 15.8 °F 64% 29.95 in 10.0 mi Calm Calm - N/A   Clear
7:35 PM 26.6 °F 22.6 °F 15.8 °F 64% 29.95 in 10.0 mi SW 3.5 mph - N/A   Clear
7:55 PM 26.6 °F - 15.8 °F 64% 29.95 in 10.0 mi Calm Calm - N/A   Clear
8:15 PM 26.6 °F 21.2 °F 15.8 °F 64% 29.95 in 10.0 mi SSW 4.6 mph - N/A   Clear
8:35 PM 26.6 °F 22.6 °F 15.8 °F 64% 29.94 in 10.0 mi SSW 3.5 mph - N/A   Clear
8:55 PM 26.6 °F 22.6 °F 15.8 °F 64% 29.94 in 10.0 mi SSW 3.5 mph - N/A   Clear
8:56 PM 26.6 °F 22.6 °F 15.8 °F 64% 29.94 in 10.0 mi SSW 3.5 mph - N/A   Clear
9:15 PM 26.6 °F - 15.8 °F 64% 29.94 in 10.0 mi Calm Calm - N/A   Clear
9:35 PM 26.6 °F - 15.8 °F 64% 29.94 in 10.0 mi Calm Calm - N/A   Scattered Clouds
9:36 PM 26.6 °F - 15.8 °F 64% 29.94 in 10.0 mi Calm Calm - N/A   Scattered Clouds
9:55 PM 26.6 °F - 15.8 °F 64% 29.94 in 10.0 mi Calm Calm - N/A   Scattered Clouds
9:56 PM 26.6 °F - 17.6 °F 69% 29.94 in 10.0 mi Calm Calm - N/A   Scattered Clouds
10:15 PM 26.6 °F 22.6 °F 17.6 °F 69% 29.94 in 10.0 mi South 3.5 mph - N/A   Scattered Clouds
10:35 PM 26.6 °F 22.6 °F 17.6 °F 69% 29.93 in 10.0 mi South 3.5 mph - N/A   Mostly Cloudy
10:36 PM 26.6 °F 22.6 °F 17.6 °F 69% 29.93 in 10.0 mi South 3.5 mph - N/A   Mostly Cloudy
10:55 PM 26.6 °F 22.6 °F 17.6 °F 69% 29.92 in 10.0 mi South 3.5 mph - N/A   Overcast
11:15 PM 26.6 °F 22.6 °F 17.6 °F 69% 29.92 in 10.0 mi South 3.5 mph - N/A   Overcast
11:16 PM 26.6 °F 22.6 °F 17.6 °F 69% 29.92 in 10.0 mi South 3.5 mph - N/A   Overcast
11:35 PM 26.6 °F 22.6 °F 17.6 °F 69% 29.91 in 10.0 mi South 3.5 mph - N/A   Overcast
11:55 PM 26.6 °F 22.6 °F 17.6 °F 69% 29.90 in 10.0 mi SSW 3.5 mph - N/A   Mostly Cloudy